Theta_e
319 318 313 315 317 321 326 329 326 327 328 329 340 349 351 348 351 355 351 351 353 357 356 348 340 335 336 339 343 344 343 341 340 331 326 328 332 335 339 343 344 345 341 335 331 334 335 328 324
319 312 313 315 314 319 322 325 327 328 326 325 326 329 338 345 345 351 352 355 356 357 356 352 337 334 334 335 338 342 342 342 341 333 327 330 333 336 338 340 341 338 337 332 326 324 324 324 326
313 314 314 314 314 314 318 323 326 327 325 325 327 336 345 346 347 350 354 356 357 356 356 350 336 333 331 331 331 335 340 341 339 333 327 331 334 337 337 336 334 334 336 336 333 330 325 326 327
314 316 314 314 314 314 316 322 323 325 325 323 323 323 344 353 352 352 355 356 356 355 355 343 336 331 329 329 329 330 333 335 335 330 327 331 334 335 336 336 335 334 333 334 336 332 326 327 328
310 313 314 315 314 314 315 318 319 321 320 321 317 324 327 356 355 356 356 356 355 355 355 347 336 331 329 328 327 327 328 329 329 326 328 332 335 335 335 335 334 333 334 334 330 328 326 328 330
315 311 314 316 316 314 314 315 317 318 318 318 317 319 327 357 356 357 357 356 355 355 354 351 335 330 329 328 326 325 324 324 325 326 331 334 334 333 333 332 333 333 331 327 326 325 326 332 334
320 314 314 314 314 314 314 314 315 316 317 317 317 317 329 357 356 356 356 356 356 355 354 353 343 331 329 328 327 325 323 323 324 327 331 332 332 331 332 334 330 328 328 328 326 325 328 333 337
318 316 316 314 314 314 313 313 314 315 315 316 315 316 319 355 356 356 355 355 356 356 354 353 349 344 340 330 328 326 324 324 325 328 329 329 330 333 334 329 329 331 331 330 328 328 330 333 333
313 320 319 317 314 314 313 313 313 314 315 314 316 317 333 354 355 356 355 355 355 355 355 353 350 347 344 343 333 328 326 325 326 328 329 333 343 340 334 335 331 333 334 334 333 333 332 329 327
317 318 319 318 316 315 314 314 315 315 316 315 318 319 327 349 355 356 355 354 354 354 354 354 352 348 346 344 344 342 342 339 339 340 338 344 346 344 341 337 330 331 330 329 328 326 326 327 336
312 317 317 316 317 316 316 314 315 315 316 317 318 319 331 350 354 356 355 354 352 353 353 353 353 349 346 344 345 344 344 344 343 342 341 342 344 343 342 342 340 341 333 338 335 337 338 340 340
313 312 312 314 314 314 315 317 319 318 317 318 318 318 322 351 355 356 355 354 352 352 353 352 353 350 348 346 344 344 344 343 342 341 331 336 341 343 343 341 340 339 340 341 340 340 341 341 338
311 309 312 313 313 314 314 315 315 316 319 320 320 321 321 328 351 354 354 353 352 352 352 352 350 350 349 347 345 344 344 343 343 341 336 340 340 340 339 339 339 338 342 344 345 346 345 345 343
309 310 311 311 311 313 314 314 315 316 316 318 319 320 321 321 340 353 354 353 352 351 351 350 352 351 349 347 347 346 344 343 343 343 338 332 333 331 337 337 338 338 342 345 345 345 345 344 343
311 312 312 313 312 312 313 314 315 314 316 316 319 320 320 320 322 348 353 352 352 351 351 350 352 351 350 348 348 347 345 343 343 343 338 335 333 330 332 336 335 341 341 339 342 346 344 344 342
310 309 311 313 313 311 313 311 314 314 314 315 315 316 317 319 326 346 352 351 351 350 350 350 350 350 350 349 348 347 346 344 342 343 342 337 334 330 329 338 340 341 342 345 346 345 343 343 344
309 309 311 312 314 312 313 311 312 315 315 315 315 316 316 318 334 351 353 351 350 350 349 349 349 349 349 345 347 346 346 344 343 343 343 339 336 332 336 340 342 345 347 346 343 343 343 343 341
310 310 309 310 312 313 314 313 313 315 316 317 317 317 318 318 333 353 352 351 350 349 349 348 347 347 346 349 346 346 346 345 344 343 343 338 339 336 331 339 343 341 344 343 341 339 342 340 341
311 311 312 310 310 313 313 315 315 315 316 317 317 318 318 319 332 352 352 349 349 350 348 347 346 347 348 346 345 346 345 345 344 343 343 342 342 340 340 342 344 345 340 340 339 341 340 341 337
312 312 313 312 309 310 310 312 314 315 316 317 318 318 319 319 340 351 350 349 348 348 347 347 347 349 346 345 345 345 344 344 344 344 344 343 344 343 344 344 342 340 335 333 334 336 337 338 329
312 313 313 312 311 310 310 310 311 312 315 316 318 319 319 320 338 351 351 349 348 347 346 346 345 345 346 344 345 346 346 346 347 347 346 344 343 343 342 339 336 333 332 331 330 335 334 333 330
315 313 311 312 312 313 310 310 309 311 312 316 318 319 319 319 333 349 350 349 348 347 348 346 345 344 344 344 345 346 346 345 343 342 339 338 337 334 332 331 333 334 331 331 334 328 328 322 327
317 313 312 313 313 312 310 313 311 313 316 316 318 320 319 319 328 346 349 347 347 348 347 346 345 345 345 345 347 345 341 339 337 335 333 332 332 332 333 330 331 331 333 334 325 319 316 314 315
315 315 313 312 311 312 310 311 310 313 316 318 317 320 319 318 326 344 347 347 347 346 345 344 345 346 347 346 344 342 341 337 334 334 334 333 333 333 333 333 331 332 328 321 317 316 315 314 315
316 316 317 317 316 314 310 310 311 315 316 318 318 320 319 318 333 345 349 348 345 344 344 344 344 346 345 343 342 340 340 338 336 335 333 332 330 331 332 333 329 323 318 317 316 315 315 315 317
318 315 315 314 314 312 311 313 312 312 316 318 319 320 318 318 337 346 348 348 345 344 344 343 345 347 344 342 340 339 340 339 337 333 331 331 331 330 329 327 317 316 317 315 315 315 315 315 316
317 317 312 316 311 310 312 312 313 312 314 318 319 319 319 318 338 347 349 347 342 342 341 342 344 344 344 340 339 340 339 338 334 333 332 329 327 324 322 317 315 315 316 315 314 314 313 314 314
316 312 315 316 315 315 310 310 312 315 314 318 321 319 320 320 334 345 346 341 340 339 339 339 340 340 339 338 339 339 335 331 330 329 326 324 322 318 316 315 315 315 314 314 312 311 311 314 314
317 317 315 313 314 318 313 310 311 319 317 320 321 320 320 327 335 342 341 337 335 332 333 334 336 338 337 337 335 331 329 327 327 323 321 319 317 315 315 314 314 312 311 310 310 311 313 314 315
314 316 314 317 312 317 326 319 317 320 322 322 321 318 325 334 340 337 332 331 330 328 329 329 330 331 331 330 328 326 326 325 323 319 316 315 314 313 313 312 312 310 309 311 312 312 313 315 316
Wind_Speed
2 2 3 3 5 3 8 8 2 6 4 2 5 5 6 3 3 0 4 20 23 30 29 35 35 34 32 32 34 34 33 32 29 28 28 29 30 28 26 24 20 17 16 15 14 13 11 11 11
3 3 2 2 5 9 10 8 12 9 3 2 4 7 10 13 4 3 6 17 27 28 28 31 36 34 33 32 32 32 32 30 28 27 28 29 29 27 24 22 18 16 15 14 13 11 11 10 10
4 3 3 4 6 15 10 7 14 12 9 5 4 5 3 3 4 5 13 23 29 27 28 32 36 34 33 32 30 30 31 30 28 27 29 29 28 25 22 20 17 15 15 14 12 11 10 10 9
3 4 2 7 15 12 13 4 8 10 9 5 3 8 3 3 1 6 22 28 34 29 28 36 35 34 32 31 30 30 29 29 28 28 28 29 27 24 21 18 16 14 13 12 11 10 9 9 9
3 1 6 8 17 6 12 10 3 5 2 5 2 5 4 4 6 16 24 28 33 31 28 32 35 32 31 30 29 29 28 28 28 29 29 28 25 22 19 16 14 13 11 10 10 9 9 8 8
4 1 6 18 18 8 10 6 11 11 9 6 5 8 3 3 9 16 22 26 27 31 29 29 33 32 31 29 29 28 28 28 29 29 28 26 23 21 18 15 14 12 11 11 11 11 10 10 9
7 5 14 14 13 14 10 8 17 15 18 16 4 6 4 2 9 16 22 24 25 28 29 26 29 31 31 30 28 28 27 28 29 29 27 24 21 19 17 15 13 11 11 10 10 10 9 8 7
4 3 12 10 13 13 4 8 8 19 21 17 6 7 6 5 13 17 21 22 24 25 27 28 26 25 26 29 28 28 27 27 27 26 25 23 21 18 15 14 12 11 11 10 9 9 9 7 6
3 8 14 17 14 7 3 10 5 3 14 6 6 12 4 14 17 18 21 22 24 24 24 26 27 25 24 24 27 27 26 25 25 24 23 21 15 15 13 12 12 10 9 8 7 6 5 6 6
10 12 18 6 12 9 7 14 7 5 7 12 9 12 7 18 23 24 24 26 27 27 26 26 26 25 24 23 24 22 21 21 20 19 21 16 14 13 12 11 11 9 8 7 7 6 6 6 6
8 16 11 6 1 6 13 13 9 11 18 13 14 9 7 15 20 23 26 31 33 28 24 26 26 26 26 24 23 21 20 19 19 20 19 16 13 11 10 8 7 7 7 5 5 5 4 4 4
11 10 14 14 13 9 10 6 9 13 20 9 11 8 9 10 16 19 25 30 34 32 26 26 24 25 25 24 23 22 20 20 18 18 20 18 14 12 10 9 8 7 6 6 5 4 4 5 7
13 18 11 9 10 11 14 17 16 19 14 15 18 16 13 12 15 20 21 23 28 32 29 27 25 25 24 24 21 21 19 20 18 18 19 16 14 13 11 10 8 6 6 5 4 3 4 5 6
2 6 9 12 19 14 14 21 16 14 15 21 19 21 15 14 15 20 21 26 30 31 31 30 25 25 24 22 21 20 18 18 18 17 18 19 16 15 12 11 8 7 6 3 3 5 5 6 7
8 12 9 13 13 14 13 23 32 17 20 17 14 14 12 14 17 22 27 27 29 28 29 29 27 25 23 21 19 16 16 16 17 16 19 19 17 15 13 10 9 7 5 5 5 5 6 6 6
10 9 8 1 11 16 15 29 27 10 17 25 22 23 20 17 16 25 27 27 27 26 29 27 26 25 23 20 18 16 17 17 17 16 16 18 16 16 14 11 8 6 4 2 2 0 2 5 6
5 9 8 6 5 7 20 27 7 6 17 16 15 19 17 15 14 22 27 30 31 31 29 29 27 27 25 25 19 18 18 18 16 14 14 16 16 15 12 10 4 3 3 3 4 5 6 8 15
7 8 8 11 4 13 19 26 16 19 14 13 12 16 15 16 15 24 28 27 27 28 27 27 27 25 24 22 17 15 16 15 12 11 11 13 13 13 13 7 4 5 5 8 5 7 10 13 14
14 16 16 12 10 11 19 16 17 14 20 18 16 16 14 13 14 25 27 29 28 27 26 28 27 27 27 22 20 16 16 13 10 9 9 9 6 6 8 6 6 8 10 8 6 5 8 16 12
20 21 19 17 15 14 22 22 20 17 24 17 17 19 16 10 14 20 27 29 29 30 30 29 30 25 24 19 16 10 14 10 8 7 7 7 8 8 9 11 11 9 13 12 10 10 11 12 6
21 21 16 20 11 17 18 23 26 24 24 19 19 20 17 14 17 21 21 29 28 27 29 31 30 26 23 18 15 11 12 13 12 13 13 12 11 10 8 8 9 15 13 11 4 10 8 9 5
23 18 18 17 9 10 10 13 18 15 26 22 21 19 19 14 19 22 22 24 29 32 30 25 23 22 20 19 15 14 12 12 17 24 27 24 20 17 14 13 15 2 5 11 7 5 5 5 2
22 16 15 16 16 14 17 10 18 17 17 23 24 21 20 15 20 23 22 27 31 27 25 21 20 20 19 19 17 18 23 25 27 29 29 26 23 19 16 13 7 11 9 6 4 3 4 3 5
4 9 8 10 10 10 25 17 15 17 24 20 24 21 21 15 20 20 25 28 23 22 21 21 20 21 22 21 21 22 30 32 28 28 29 25 23 20 14 11 9 11 4 6 5 4 5 6 7
11 9 5 7 7 14 13 16 20 19 22 23 25 21 19 14 17 19 20 17 22 23 22 24 24 25 25 26 25 28 33 32 32 25 29 28 25 22 20 5 5 3 1 3 4 4 5 5 6
13 17 6 8 9 12 13 15 18 30 23 12 15 16 14 15 17 18 19 16 21 23 24 24 26 27 26 29 29 27 28 26 20 25 28 26 25 25 21 12 11 8 6 5 4 5 5 6 5
3 11 10 4 11 9 15 17 16 25 21 21 16 16 17 17 18 20 18 19 22 23 24 27 28 27 25 26 28 21 19 20 23 23 21 22 24 23 20 18 14 11 9 7 4 3 3 3 5
4 6 6 5 5 10 14 22 13 22 25 19 18 20 17 16 19 18 18 19 21 22 26 28 28 28 27 24 20 20 21 22 24 21 25 23 22 24 23 21 17 12 9 5 2 1 3 4 3
5 4 4 5 8 6 10 15 19 14 24 22 21 22 20 19 20 19 16 22 26 26 28 29 30 33 31 26 27 26 27 27 28 23 23 26 25 23 21 20 16 11 7 5 4 6 6 7 7
11 7 15 9 9 8 7 4 13 16 15 21 19 19 21 21 20 18 18 24 26 25 26 26 27 30 29 29 30 30 30 31 29 26 25 27 25 21 17 14 11 8 8 8 8 8 7 4 4
Wind_Direction
220 201 161 146 218 241 228 222 243 207 242 200 135 204 251 253 206 45 315 181 162 160 160 163 160 158 158 155 158 158 158 158 156 153 152 151 151 152 153 152 149 148 147 148 149 153 155 150 144
161 141 98 131 227 216 223 218 208 203 227 282 272 247 263 268 225 130 102 160 157 157 158 159 161 160 160 160 157 160 160 161 159 156 156 154 154 155 155 154 153 153 154 155 152 151 150 148 144
150 145 197 202 218 225 238 200 221 238 232 273 288 245 257 266 138 146 149 153 152 156 158 161 161 161 162 161 159 160 162 164 163 161 160 158 158 157 157 156 155 155 160 162 159 155 154 153 151
171 153 129 231 219 226 228 188 223 222 253 210 287 261 245 35 33 148 153 156 153 157 160 162 163 163 162 160 161 163 165 167 167 165 164 162 161 159 159 161 162 162 163 166 167 164 161 157 154
71 175 220 236 236 240 229 230 148 193 246 179 339 264 267 45 100 139 154 159 155 153 160 161 165 165 163 162 162 163 166 168 167 164 165 163 162 162 164 168 170 169 169 170 170 168 163 159 156
176 224 221 231 229 226 239 231 244 247 250 270 270 273 276 102 128 146 153 159 160 151 157 160 166 168 165 164 163 163 165 166 165 164 165 166 166 166 170 173 174 174 175 174 170 167 167 165 163
228 206 231 248 243 243 233 204 227 239 263 257 263 279 306 211 148 151 151 157 159 155 154 158 165 171 169 168 166 164 166 165 166 167 168 169 171 172 174 173 175 171 167 168 167 168 167 170 179
213 237 238 231 229 254 217 199 226 213 238 257 239 243 243 157 154 147 149 156 160 159 159 162 164 167 168 170 170 168 167 168 169 170 171 172 172 173 175 172 169 168 165 163 161 162 171 191 208
161 231 239 234 221 222 181 213 189 219 231 205 206 240 81 147 151 152 151 159 165 164 165 166 165 170 169 169 172 171 170 170 172 173 174 172 166 169 171 173 173 172 168 167 168 176 193 217 237
207 226 235 228 240 243 244 239 212 250 220 231 256 258 303 174 170 166 170 167 174 171 171 171 171 171 171 170 168 167 168 168 170 175 176 173 170 170 169 174 178 179 182 186 192 196 211 239 263
220 239 232 185 313 291 273 255 242 251 250 233 238 249 357 181 190 183 183 178 177 172 168 175 174 175 174 172 170 169 171 173 177 180 180 180 177 176 176 176 178 185 197 203 215 226 246 267 287
251 247 249 263 287 303 288 308 285 248 248 260 248 306 316 204 201 199 190 184 174 174 174 175 178 178 177 177 175 176 175 177 178 182 187 187 186 188 186 185 189 192 205 220 230 252 272 298 309
241 250 247 259 285 288 292 272 271 260 253 264 277 278 276 259 222 214 205 189 177 176 176 179 178 180 182 179 178 179 181 183 183 183 190 190 192 194 195 199 199 203 210 220 249 297 312 310 307
319 297 275 266 258 261 277 280 277 248 246 253 255 266 267 250 231 212 202 189 186 179 177 179 179 183 184 183 182 183 185 188 187 187 193 199 200 202 200 207 210 211 223 249 288 292 305 312 319
284 283 277 249 241 242 251 273 249 258 258 263 247 246 244 251 272 216 201 198 190 184 173 178 180 183 185 186 188 191 194 192 193 194 199 202 203 206 205 209 213 216 237 283 301 308 281 295 296
276 280 276 330 228 223 202 254 255 243 233 248 251 256 256 258 265 213 201 189 190 184 179 175 182 185 186 187 191 196 199 198 199 199 201 206 207 207 204 197 201 226 265 290 274 317 346 311 336
245 261 250 276 264 230 210 245 276 268 248 261 256 258 255 252 233 202 193 187 188 186 184 179 182 185 189 194 195 197 201 199 202 202 204 211 211 210 202 200 190 175 163 151 94 48 350 345 344
250 254 255 260 236 228 234 248 254 278 286 288 293 268 255 243 218 191 191 186 183 188 187 183 183 186 189 190 193 195 196 198 201 204 209 217 218 216 215 214 218 219 149 94 59 12 342 347 294
261 262 262 261 272 285 260 273 272 275 274 268 267 267 263 245 209 193 181 181 182 185 182 181 179 187 186 190 189 194 191 192 195 203 211 211 206 202 202 195 201 154 140 101 70 21 347 307 304
252 257 259 263 250 257 264 270 269 261 264 264 267 261 259 238 193 182 181 181 183 180 184 183 190 190 191 188 183 182 175 177 179 177 165 153 135 144 142 121 128 107 99 85 37 8 311 268 314
244 249 253 253 262 259 266 270 265 254 258 257 253 254 256 229 195 183 178 181 180 185 188 190 189 189 186 175 166 139 141 134 124 122 126 141 142 134 137 134 122 114 92 98 219 294 263 238 259
257 241 239 242 243 254 206 265 258 249 245 240 243 241 241 221 203 183 179 178 178 193 194 188 181 180 174 173 163 149 156 121 123 114 120 116 114 100 79 92 118 215 143 173 222 231 231 230 182
255 247 234 237 239 263 249 256 263 242 240 227 229 232 236 223 198 188 176 177 189 187 184 175 169 167 164 163 157 135 122 115 111 115 111 107 107 104 98 110 99 157 196 187 181 126 145 124 106
250 215 236 222 233 242 241 224 251 233 220 225 222 221 229 207 197 187 178 178 177 174 165 155 153 150 150 141 148 147 132 125 117 117 116 119 117 114 115 124 173 228 209 129 120 121 103 100 97
186 155 179 197 199 239 234 233 235 208 226 224 217 212 214 200 191 181 173 165 163 157 152 151 139 138 136 136 144 137 136 140 138 141 142 140 133 129 122 133 179 192 129 112 118 104 105 94 82
199 193 190 212 214 247 219 226 231 232 243 247 245 212 196 186 181 180 173 164 157 152 147 148 142 135 132 137 137 140 142 156 155 149 144 138 139 136 130 160 145 160 155 136 125 126 103 81 78
184 208 207 316 247 256 223 232 250 230 228 236 240 193 183 182 173 175 163 155 148 145 142 143 141 138 142 146 143 154 158 155 147 149 146 146 144 135 128 136 147 144 140 133 129 105 83 69 64
203 195 170 217 241 233 231 228 232 204 214 221 212 196 180 173 162 155 149 139 132 128 134 134 137 141 150 152 151 147 148 139 135 140 140 135 131 133 137 141 141 142 141 149 125 116 116 104 91
187 182 191 250 238 267 275 225 210 219 200 204 201 183 169 164 154 144 132 127 118 116 122 129 137 138 141 148 148 140 135 128 134 129 130 134 139 139 136 134 134 142 131 117 121 115 109 98 91
202 200 205 220 226 234 282 204 191 208 195 195 195 165 158 146 142 131 127 121 114 112 118 121 129 133 139 141 135 132 135 133 130 128 130 136 133 130 126 121 120 115 110 114 120 111 102 106 119